K9VSK Weather Reports


Display with metric or nautical units.
time (UTC)temp
F
wind
direction
speed
MPH
gust
MPH
rain 1hr
in
rain 24hr
in
rain mn
in
humidity
%
barometer
mb
20221006004211 64 235 0.0 0.0 0.00 0.00 0.00 52 1016.8
20221006003711 64 234 0.0 0.0 0.00 0.00 0.00 52 1016.7
20221006003211 65 234 0.0 0.0 0.00 0.00 0.00 52 1016.7
20221006002711 65 234 0.0 0.0 0.00 0.00 0.00 51 1016.7
20221006002210 65 234 0.0 0.0 0.00 0.00 0.00 50 1016.8
20221006001710 66 238 0.0 0.0 0.00 0.00 0.00 49 1016.8
20221006001209 67 239 0.0 0.0 0.00 0.00 0.00 48 1016.7
20221006000709 67 235 0.0 0.0 0.00 0.00 0.00 46 1016.7
20221006000209 67 360 0.0 0.0 0.00 0.00 0.00 45 1016.6
20221005235708 67 188 0.0 0.0 0.00 0.00 0.00 44 1016.7
20221005235208 67 227 0.0 0.0 0.00 0.00 0.00 44 1016.7
20221005234708 67 194 0.0 0.0 0.00 0.00 0.00 44 1016.4
20221005234208 67 165 0.0 0.0 0.00 0.00 0.00 44 1016.4
20221005233708 67 160 0.0 0.0 0.00 0.00 0.00 44 1016.5
20221005233207 68 360 0.0 0.0 0.00 0.00 0.00 43 1016.5
20221005232707 68 223 0.0 0.0 0.00 0.00 0.00 42 1016.6
20221005232207 69 222 0.0 0.0 0.00 0.00 0.00 42 1016.8
20221005231705 69 222 0.0 0.0 0.00 0.00 0.00 41 1016.8
20221005231205 70 223 0.0 0.0 0.00 0.00 0.00 40 1016.7
20221005230704 70 223 0.0 0.0 0.00 0.00 0.00 40 1016.7
20221005230204 70 223 0.0 0.0 0.00 0.00 0.00 39 1016.8
20221005225704 71 360 0.0 0.0 0.00 0.00 0.00 39 1016.8
20221005225203 71 227 0.0 0.0 0.00 0.00 0.00 38 1016.7
20221005224703 71 232 0.0 0.0 0.00 0.00 0.00 38 1016.8
20221005224203 71 234 0.0 0.0 0.00 0.00 0.00 38 1016.8
20221005223703 72 227 0.0 0.0 0.00 0.00 0.00 37 1016.7
20221005223202 72 360 0.0 0.0 0.00 0.00 0.00 36 1016.7
20221005222702 72 239 0.0 0.0 0.00 0.00 0.00 35 1016.7
20221005222202 72 241 0.0 0.0 0.00 0.00 0.00 35 1016.7
20221005221701 73 180 0.0 0.0 0.00 0.00 0.00 35 1016.7
20221005221201 73 234 0.0 0.0 0.00 0.00 0.00 35 1016.6
20221005220701 73 253 0.0 0.0 0.00 0.00 0.00 35 1016.6
20221005220201 73 246 0.0 0.0 0.00 0.00 0.00 34 1016.6
20221005215700 74 244 0.0 0.0 0.00 0.00 0.00 33 1016.6
20221005215200 74 242 0.0 0.0 0.00 0.00 0.00 32 1016.6
20221005214700 74 252 0.0 0.0 0.00 0.00 0.00 32 1016.7
20221005214318 75 246 0.0 0.0 0.00 0.00 0.00 30 1016.7
20221005214159 75 246 0.0 0.0 0.00 0.00 0.00 30 1016.7
20221005213659 75 244 0.0 0.0 0.00 0.00 0.00 30 1016.7
20221005213159 75 179 0.0 0.0 0.00 0.00 0.00 30 1016.6
20221005212659 75 242 0.0 0.0 0.00 0.00 0.00 30 1016.7
20221005212158 75 234 0.0 0.0 0.00 0.00 0.00 30 1016.8
20221005211658 75 360 0.0 0.0 0.00 0.00 0.00 30 1016.8
20221005211158 75 232 0.0 0.0 0.00 0.00 0.00 30 1016.8
20221005210658 75 240 0.0 0.0 0.00 0.00 0.00 31 1016.9
20221005210157 76 243 0.0 0.0 0.00 0.00 0.00 31 1016.9
20221005205657 76 248 0.0 0.0 0.00 0.00 0.00 29 1016.9
20221005205157 77 194 0.0 0.0 0.00 0.00 0.00 28 1016.9
20221005204858 77 360 0.0 0.0 0.00 0.00 0.00 29 1016.9
20221005204656 77 360 0.0 0.0 0.00 0.00 0.00 29 1016.9
20221005204531 77 256 0.0 0.0 0.00 0.00 0.00 28 1017.0
20221005204156 77 256 0.0 0.0 0.00 0.00 0.00 28 1017.0
20221005203656 77 360 0.0 0.0 0.00 0.00 0.00 28 1017.0
20221005203155 77 360 0.0 0.0 0.00 0.00 0.00 28 1017.1
20221005202655 77 360 0.0 0.0 0.00 0.00 0.00 29 1017.0
20221005202155 77 246 0.0 0.0 0.00 0.00 0.00 30 1017.0
20221005201655 77 360 0.0 0.0 0.00 0.00 0.00 29 1017.1
20221005201154 77 144 0.0 0.0 0.00 0.00 0.00 29 1017.1
20221005200654 77 360 0.0 0.0 0.00 0.00 0.00 29 1017.1
20221005200154 77 236 0.0 0.0 0.00 0.00 0.00 28 1017.1
20221005195721 77 258 0.0 0.0 0.00 0.00 0.00 30 1017.2
20221005195653 77 233 0.0 0.0 0.00 0.00 0.00 29 1017.2
20221005195153 77 258 0.0 0.0 0.00 0.00 0.00 30 1017.2
20221005194653 76 190 0.0 0.0 0.00 0.00 0.00 29 1017.3
20221005194153 76 163 0.0 0.0 0.00 0.00 0.00 30 1017.3
20221005193652 76 145 0.0 0.0 0.00 0.00 0.00 29 1017.4
20221005193152 77 360 0.0 0.0 0.00 0.00 0.00 29 1017.5
20221005192652 77 133 0.0 0.0 0.00 0.00 0.00 29 1017.6
20221005192151 76 172 0.0 0.0 0.00 0.00 0.00 31 1017.6
20221005191651 76 360 0.0 0.0 0.00 0.00 0.00 30 1017.7
20221005191151 76 188 0.0 0.0 0.00 0.00 0.00 30 1017.8
20221005190651 76 360 0.0 0.0 0.00 0.00 0.00 30 1017.9
20221005190150 76 149 0.0 0.0 0.00 0.00 0.00 31 1017.9
20221005185650 76 360 0.0 0.0 0.00 0.00 0.00 30 1017.9
20221005185150 76 189 0.0 0.0 0.00 0.00 0.00 29 1017.9
20221005184649 76 360 0.0 0.0 0.00 0.00 0.00 30 1018.1
20221005184149 76 194 0.0 0.0 0.00 0.00 0.00 30 1018.2
20221005183649 76 360 0.0 0.0 0.00 0.00 0.00 32 1018.2
20221005183149 75 232 0.0 0.0 0.00 0.00 0.00 30 1018.4
20221005182648 75 128 0.0 0.0 0.00 0.00 0.00 31 1018.5
20221005182148 75 178 0.0 0.0 0.00 0.00 0.00 31 1018.6
20221005181648 75 245 0.0 0.0 0.00 0.00 0.00 32 1018.6
20221005181147 74 113 0.0 0.0 0.00 0.00 0.00 31 1018.7
20221005180647 75 244 0.0 0.0 0.00 0.00 0.00 32 1018.8
20221005180147 75 190 0.0 0.0 0.00 0.00 0.00 32 1018.9
20221005175647 75 141 0.0 0.0 0.00 0.00 0.00 33 1019.0
20221005175146 75 231 0.0 0.0 0.00 0.00 0.00 33 1019.0
20221005174646 74 167 0.0 0.0 0.00 0.00 0.00 34 1019.1
20221005174146 74 123 0.0 0.0 0.00 0.00 0.00 33 1019.2
20221005173646 74 360 0.0 0.0 0.00 0.00 0.00 33 1019.2
20221005173145 74 248 0.0 0.0 0.00 0.00 0.00 34 1019.3
20221005172645 74 360 0.0 0.0 0.00 0.00 0.00 33 1019.3
20221005172145 74 108 0.0 0.0 0.00 0.00 0.00 35 1019.3
20221005171644 73 270 0.0 0.0 0.00 0.00 0.00 36 1019.3
20221005171144 73 268 0.0 0.0 0.00 0.00 0.00 35 1019.4
20221005170643 73 245 0.0 0.0 0.00 0.00 0.00 35 1019.4
20221005170143 73 223 0.0 0.0 0.00 0.00 0.00 36 1019.5
20221005165643 73 282 0.0 0.0 0.00 0.00 0.00 37 1019.6
20221005165143 72 291 0.0 0.0 0.00 0.00 0.00 35 1019.6
20221005164643 72 178 0.0 0.0 0.00 0.00 0.00 37 1019.7
20221005164142 72 252 0.0 0.0 0.00 0.00 0.00 37 1019.7
20221005163642 71 252 0.0 0.0 0.00 0.00 0.00 38 1019.7
20221005163142 71 267 0.0 0.0 0.00 0.00 0.00 38 1019.8
20221005162641 71 223 0.0 0.0 0.00 0.00 0.00 38 1019.8
20221005162141 71 238 0.0 0.0 0.00 0.00 0.00 38 1020.0
20221005161647 70 260 0.0 0.0 0.00 0.00 0.00 39 1020.0
20221005161642 70 260 0.0 0.0 0.00 0.00 0.00 39 1020.0
20221005161212 70 249 0.0 0.0 0.00 0.00 0.00 40 1020.2
20221005161140 70 249 0.0 0.0 0.00 0.00 0.00 40 1020.2
20221005160641 70 277 0.0 0.0 0.00 0.00 0.00 40 1020.2
20221005160140 70 248 0.0 0.0 0.00 0.00 0.00 41 1020.3
20221005155639 69 247 0.0 0.0 0.00 0.00 0.00 42 1020.2
20221005155139 69 256 0.0 0.0 0.00 0.00 0.00 43 1020.2
20221005154714 69 263 0.0 0.0 0.00 0.00 0.00 44 1020.3
20221005154639 69 263 0.0 0.0 0.00 0.00 0.00 44 1020.3
20221005154139 68 239 0.0 0.0 0.00 0.00 0.00 45 1020.2
20221005153820 68 249 0.0 0.0 0.00 0.00 0.00 45 1020.3
20221005153639 68 249 0.0 0.0 0.00 0.00 0.00 45 1020.3
20221005153138 67 240 0.0 0.0 0.00 0.00 0.00 47 1020.3
20221005152638 66 248 0.0 0.0 0.00 0.00 0.00 49 1020.4
20221005152137 66 248 0.0 0.0 0.00 0.00 0.00 49 1020.4
20221005151713 66 249 0.0 0.0 0.00 0.00 0.00 49 1020.4
20221005151637 66 249 0.0 0.0 0.00 0.00 0.00 49 1020.4
20221005151212 65 248 0.0 0.0 0.00 0.00 0.00 50 1020.4
20221005151137 65 248 0.0 0.0 0.00 0.00 0.00 50 1020.4
20221005150729 65 238 0.0 0.0 0.00 0.00 0.00 52 1020.3
20221005150637 65 238 0.0 0.0 0.00 0.00 0.00 52 1020.3
20221005150212 64 229 0.0 0.0 0.00 0.00 0.00 53 1020.4
20221005150136 64 229 0.0 0.0 0.00 0.00 0.00 53 1020.4
20221005145729 64 246 0.0 0.0 0.00 0.00 0.00 53 1020.4
20221005145636 64 246 0.0 0.0 0.00 0.00 0.00 53 1020.4
20221005145210 63 259 0.0 0.0 0.00 0.00 0.00 54 1020.5
20221005145136 63 259 0.0 0.0 0.00 0.00 0.00 54 1020.5
20221005144710 62 254 0.0 0.0 0.00 0.00 0.00 55 1020.5
20221005144636 62 254 0.0 0.0 0.00 0.00 0.00 55 1020.5
20221005144135 61 249 0.0 0.0 0.00 0.00 0.00 57 1020.6
20221005143633 61 249 0.0 0.0 0.00 0.00 0.00 58 1020.7
20221005143206 60 260 0.0 0.0 0.00 0.00 0.00 57 1020.7
20221005143133 60 260 0.0 0.0 0.00 0.00 0.00 57 1020.7
20221005142736 60 244 0.0 0.0 0.00 0.00 0.00 57 1020.7
20221005142632 60 244 0.0 0.0 0.00 0.00 0.00 57 1020.7
20221005142229 59 259 0.0 0.0 0.00 0.00 0.00 58 1020.7
20221005142133 59 259 0.0 0.0 0.00 0.00 0.00 58 1020.7
20221005141632 59 259 0.0 0.0 0.00 0.00 0.00 58 1020.7
20221005141211 58 252 0.0 0.0 0.00 0.00 0.00 60 1020.6
20221005141132 58 252 0.0 0.0 0.00 0.00 0.00 60 1020.6
20221005140632 57 252 0.0 0.0 0.00 0.00 0.00 64 1020.5
20221005135716 55 248 0.0 0.0 0.00 0.00 0.00 70 1020.5
20221005135631 55 248 0.0 0.0 0.00 0.00 0.00 70 1020.5
20221005135130 54 250 0.0 0.0 0.00 0.00 0.00 71 1020.5
20221005134720 53 250 0.0 0.0 0.00 0.00 0.00 72 1020.5
20221005134630 53 250 0.0 0.0 0.00 0.00 0.00 72 1020.5
20221005134201 52 250 0.0 0.0 0.00 0.00 0.00 73 1020.6
20221005134130 52 250 0.0 0.0 0.00 0.00 0.00 73 1020.6
20221005133630 51 257 0.0 0.0 0.00 0.00 0.00 73 1020.6
20221005133218 51 257 0.0 0.0 0.00 0.00 0.00 74 1020.6
20221005133129 51 257 0.0 0.0 0.00 0.00 0.00 74 1020.6
20221005132629 50 256 0.0 0.0 0.00 0.00 0.00 75 1020.6
20221005132129 49 253 0.0 0.0 0.00 0.00 0.00 77 1020.5
20221005131713 48 251 0.0 0.0 0.00 0.00 0.00 78 1020.5
20221005131629 48 251 0.0 0.0 0.00 0.00 0.00 78 1020.5
20221005131128 47 251 0.0 0.0 0.00 0.00 0.00 78 1020.5
20221005130628 47 249 0.0 0.0 0.00 0.00 0.00 79 1020.4
20221005130210 46 248 0.0 0.0 0.00 0.00 0.00 81 1020.4
20221005130128 46 248 0.0 0.0 0.00 0.00 0.00 81 1020.4
20221005125627 45 243 0.0 0.0 0.00 0.00 0.00 82 1020.3
20221005125127 44 240 0.0 0.0 0.00 0.00 0.00 83 1020.3
20221005124627 43 240 0.0 0.0 0.00 0.00 0.00 82 1020.3
20221005124126 43 240 0.0 0.0 0.00 0.00 0.00 82 1020.3
20221005123626 42 240 0.0 0.0 0.00 0.00 0.00 82 1020.3
20221005123126 42 240 0.0 0.0 0.00 0.00 0.00 81 1020.3
20221005122625 42 237 0.0 0.0 0.00 0.00 0.00 82 1020.3
20221005122125 42 237 0.0 0.0 0.00 0.00 0.00 83 1020.3
20221005121715 41 238 0.0 0.0 0.00 0.00 0.00 83 1020.3
20221005121625 41 238 0.0 0.0 0.00 0.00 0.00 83 1020.3
20221005121125 41 237 0.0 0.0 0.00 0.00 0.00 84 1020.2
20221005120624 41 237 0.0 0.0 0.00 0.00 0.00 84 1020.2
20221005120124 41 237 0.0 0.0 0.00 0.00 0.00 83 1020.2
20221005115624 41 238 0.0 0.0 0.00 0.00 0.00 82 1020.2
20221005115123 41 237 0.0 0.0 0.00 0.00 0.00 82 1020.3
20221005114623 41 237 0.0 0.0 0.00 0.00 0.00 82 1020.3
20221005114123 41 238 0.0 0.0 0.00 0.00 0.00 82 1020.3
20221005113623 41 239 0.0 0.0 0.00 0.00 0.00 83 1020.3
20221005113123 41 240 0.0 0.0 0.00 0.00 0.00 83 1020.4
20221005112621 41 240 0.0 0.0 0.00 0.00 0.00 83 1020.3
20221005112158 40 240 0.0 0.0 0.00 0.00 0.00 83 1020.3
20221005112120 40 240 0.0 0.0 0.00 0.00 0.00 83 1020.3
20221005111620 40 240 0.0 0.0 0.00 0.00 0.00 83 1020.2
20221005111120 40 240 0.0 0.0 0.00 0.00 0.00 83 1020.2
20221005110619 40 240 0.0 0.0 0.00 0.00 0.00 82 1020.3
20221005110119 41 240 0.0 0.0 0.00 0.00 0.00 83 1020.3
20221005105619 41 240 0.0 0.0 0.00 0.00 0.00 83 1020.3
20221005105119 41 240 0.0 0.0 0.00 0.00 0.00 83 1020.2
20221005104618 41 240 0.0 0.0 0.00 0.00 0.00 84 1020.1
20221005104118 41 240 0.0 0.0 0.00 0.00 0.00 84 1020.1
20221005103618 41 240 0.0 0.0 0.00 0.00 0.00 83 1020.1
20221005103200 41 240 0.0 0.0 0.00 0.00 0.00 83 1020.1
20221005103117 41 240 0.0 0.0 0.00 0.00 0.00 83 1020.1
20221005102618 41 240 0.0 0.0 0.00 0.00 0.00 83 1020.1
20221005102117 41 239 0.0 0.0 0.00 0.00 0.00 82 1020.0
20221005101617 41 238 0.0 0.0 0.00 0.00 0.00 81 1019.9
20221005101116 42 239 0.0 0.0 0.00 0.00 0.00 81 1019.8
20221005100616 42 239 0.0 0.0 0.00 0.00 0.00 81 1019.8